Time,TemperatureF,DewpointF,PressureIn,WindDirection,WindDirectionDegrees,WindSpeedMPH,WindSpeedGustMPH,Humidity,HourlyPrecipIn,Conditions,Clouds,dailyrainin,SoftwareType,DateUTC
2013-07-10 00:01:00,90.0,72.0,29.83,ENE,72,0.0,1.0,56,0.00,,,0.00,,2013-07-10 07:01:00,
2013-07-10 00:11:00,90.0,72.0,29.83,NNE,23,0.0,1.0,56,0.00,,,0.00,,2013-07-10 07:11:00,
2013-07-10 00:21:00,90.0,72.0,29.83,NNE,23,0.0,1.0,56,0.00,,,0.00,,2013-07-10 07:21:00,
2013-07-10 00:32:00,90.0,72.0,29.83,East,88,0.0,1.0,55,0.00,,,0.00,,2013-07-10 07:32:00,
2013-07-10 00:43:00,90.0,72.0,29.83,NNE,33,1.0,2.0,55,0.00,,,0.00,,2013-07-10 07:43:00,
2013-07-10 00:53:00,90.0,68.0,29.83,ENE,63,0.0,2.0,49,0.00,,,0.00,,2013-07-10 07:53:00,
2013-07-10 01:22:00,91.0,70.0,29.83,WSW,243,0.0,1.0,51,0.00,,,0.00,,2013-07-10 08:22:00,
2013-07-10 01:32:00,90.0,72.0,29.83,ESE,120,0.0,2.0,55,0.00,,,0.00,,2013-07-10 08:32:00,
2013-07-10 01:42:00,90.0,73.0,29.83,SE,138,0.0,1.0,58,0.00,,,0.00,,2013-07-10 08:42:00,
2013-07-10 01:53:00,89.0,73.0,29.83,East,101,2.0,6.0,60,0.00,,,0.00,,2013-07-10 08:53:00,
2013-07-10 02:02:00,89.0,74.0,29.83,SE,124,1.0,4.0,61,0.00,,,0.00,,2013-07-10 09:02:00,
2013-07-10 02:12:00,89.0,74.0,29.83,SSE,151,3.0,7.0,61,0.00,,,0.00,,2013-07-10 09:12:00,
2013-07-10 02:21:00,88.0,73.0,29.83,ESE,115,3.0,9.0,62,0.00,,,0.00,,2013-07-10 09:21:00,
2013-07-10 02:32:00,88.0,74.0,29.83,SE,141,3.0,6.0,64,0.00,,,0.00,,2013-07-10 09:32:00,
2013-07-10 02:42:00,88.0,75.0,29.83,East,82,2.0,5.0,65,0.00,,,0.00,,2013-07-10 09:42:00,
2013-07-10 02:52:00,88.0,75.0,29.83,SE,131,1.0,5.0,65,0.00,,,0.00,,2013-07-10 09:52:00,
2013-07-10 03:01:00,87.0,74.0,29.83,East,98,2.0,6.0,66,0.00,,,0.00,,2013-07-10 10:01:00,
2013-07-10 03:13:00,87.0,74.0,29.84,ESE,104,3.0,6.0,66,0.00,,,0.00,,2013-07-10 10:13:00,
2013-07-10 03:32:00,87.0,75.0,29.85,ESE,102,4.0,8.0,68,0.00,,,0.00,,2013-07-10 10:32:00,
2013-07-10 03:50:00,-999.0,-99.9,29.86,East,94,5.0,10.0,-999,-99.99,,,-99.99,,2013-07-10 10:50:00,
2013-07-10 04:00:00,-999.0,-99.9,29.87,East,89,4.0,10.0,-999,-99.99,,,-99.99,,2013-07-10 11:00:00,
2013-07-10 04:11:00,85.0,75.0,29.89,ESE,110,5.0,15.0,71,0.00,,,0.00,,2013-07-10 11:11:00,
2013-07-10 04:22:00,85.0,74.0,29.90,SSE,168,6.0,13.0,70,0.00,,,0.00,,2013-07-10 11:22:00,
2013-07-10 04:33:00,85.0,74.0,29.90,ESE,108,5.0,12.0,70,0.00,,,0.00,,2013-07-10 11:33:00,
2013-07-10 04:43:00,85.0,75.0,29.91,SSE,162,5.0,11.0,71,0.00,,,0.00,,2013-07-10 11:43:00,
2013-07-10 04:52:00,85.0,74.0,29.91,East,98,4.0,9.0,70,0.00,,,0.00,,2013-07-10 11:52:00,
2013-07-10 05:01:00,84.0,73.0,29.91,East,83,5.0,10.0,69,0.00,,,0.00,,2013-07-10 12:01:00,
2013-07-10 05:11:00,84.0,73.0,29.92,SE,124,2.0,10.0,69,0.00,,,0.00,,2013-07-10 12:11:00,
2013-07-10 05:22:00,84.0,73.0,29.92,SE,134,4.0,13.0,70,0.00,,,0.00,,2013-07-10 12:22:00,
2013-07-10 05:32:00,84.0,73.0,29.92,ENE,73,5.0,10.0,70,0.00,,,0.00,,2013-07-10 12:32:00,
2013-07-10 05:42:00,84.0,74.0,29.91,ESE,108,3.0,7.0,71,0.00,,,0.00,,2013-07-10 12:42:00,
2013-07-10 05:52:00,84.0,74.0,29.91,SE,135,4.0,7.0,72,0.00,,,0.00,,2013-07-10 12:52:00,
2013-07-10 06:01:00,83.0,73.0,29.91,SE,131,3.0,10.0,72,0.00,,,0.00,,2013-07-10 13:01:00,
2013-07-10 06:11:00,83.0,73.0,29.91,SE,131,3.0,10.0,72,0.00,,,0.00,,2013-07-10 13:11:00,
2013-07-10 06:32:00,83.0,73.0,29.91,ESE,117,2.0,5.0,71,0.00,,,0.00,,2013-07-10 13:32:00,
2013-07-10 06:42:00,84.0,74.0,29.91,ESE,103,2.0,5.0,71,0.00,,,0.00,,2013-07-10 13:42:00,
2013-07-10 06:52:00,84.0,74.0,29.91,East,89,0.0,4.0,71,0.00,,,0.00,,2013-07-10 13:52:00,
2013-07-10 07:01:00,84.0,74.0,29.92,East,101,1.0,3.0,71,0.00,,,0.00,,2013-07-10 14:01:00,
2013-07-10 07:11:00,84.0,74.0,29.92,East,101,1.0,4.0,71,0.00,,,0.00,,2013-07-10 14:11:00,
2013-07-10 07:22:00,84.0,74.0,29.92,SE,127,0.0,3.0,71,0.00,,,0.00,,2013-07-10 14:22:00,
2013-07-10 07:33:00,84.0,74.0,29.92,ESE,110,0.0,1.0,71,0.00,,,0.00,,2013-07-10 14:33:00,
2013-07-10 07:43:00,84.0,74.0,29.92,ESE,107,0.0,3.0,71,0.00,,,0.00,,2013-07-10 14:43:00,
2013-07-10 07:53:00,84.0,74.0,29.92,East,96,0.0,2.0,71,0.00,,,0.00,,2013-07-10 14:53:00,
2013-07-10 08:34:00,86.0,73.0,29.91,ESE,120,0.0,1.0,66,0.00,,,0.00,,2013-07-10 15:34:00,
2013-07-10 08:42:00,87.0,74.0,29.91,ESE,121,0.0,2.0,65,0.00,,,0.00,,2013-07-10 15:42:00,
2013-07-10 08:52:00,88.0,74.0,29.91,ESE,121,0.0,1.0,63,0.00,,,0.00,,2013-07-10 15:52:00,
2013-07-10 09:01:00,89.0,74.0,29.90,WSW,243,0.0,1.0,61,0.00,,,0.00,,2013-07-10 16:01:00,
2013-07-10 09:11:00,90.0,73.0,29.90,ESE,111,0.0,1.0,58,0.00,,,0.00,,2013-07-10 16:11:00,
2013-07-10 09:33:00,90.0,73.0,29.90,SSE,162,0.0,2.0,57,0.00,,,0.00,,2013-07-10 16:33:00,
2013-07-10 09:44:00,92.0,73.0,29.89,SSW,207,0.0,2.0,55,0.00,,,0.00,,2013-07-10 16:44:00,
2013-07-10 09:52:00,93.0,73.0,29.89,SW,232,1.0,2.0,52,0.00,,,0.00,,2013-07-10 16:52:00,
2013-07-10 10:01:00,93.0,72.0,29.89,West,276,0.0,2.0,51,0.00,,,0.00,,2013-07-10 17:01:00,
2013-07-10 10:11:00,93.0,73.0,29.88,West,264,0.0,2.0,52,0.00,,,0.00,,2013-07-10 17:11:00,
2013-07-10 10:32:00,94.0,73.0,29.88,WNW,284,2.0,3.0,51,0.00,,,0.00,,2013-07-10 17:32:00,
2013-07-10 10:42:00,93.0,73.0,29.88,SSE,153,2.0,5.0,52,0.00,,,0.00,,2013-07-10 17:42:00,
2013-07-10 10:52:00,93.0,73.0,29.88,ESE,104,3.0,6.0,52,0.00,,,0.00,,2013-07-10 17:52:00,
2013-07-10 11:01:00,92.0,72.0,29.88,ENE,70,1.0,6.0,53,0.00,,,0.00,,2013-07-10 18:01:00,
2013-07-10 11:11:00,92.0,72.0,29.88,ESE,103,4.0,8.0,52,0.00,,,0.00,,2013-07-10 18:11:00,
2013-07-10 11:21:00,92.0,72.0,29.88,SSE,149,3.0,6.0,52,0.00,,,0.00,,2013-07-10 18:21:00,
2013-07-10 11:32:00,93.0,72.0,29.88,South,172,1.0,8.0,51,0.00,,,0.00,,2013-07-10 18:32:00,
2013-07-10 11:44:00,94.0,72.0,29.87,SW,233,1.0,4.0,49,0.00,,,0.00,,2013-07-10 18:44:00,
2013-07-10 11:52:00,94.0,72.0,29.87,North,7,2.0,6.0,49,0.00,,,0.00,,2013-07-10 18:52:00,
2013-07-10 12:01:00,95.0,72.0,29.86,ENE,66,3.0,7.0,48,0.00,,,0.00,,2013-07-10 19:01:00,
2013-07-10 12:11:00,95.0,73.0,29.86,ENE,75,2.0,8.0,50,0.00,,,0.00,,2013-07-10 19:11:00,
2013-07-10 12:21:00,95.0,72.0,29.86,East,93,2.0,6.0,48,0.00,,,0.00,,2013-07-10 19:21:00,
2013-07-10 12:32:00,96.0,71.0,29.85,East,83,3.0,5.0,45,0.00,,,0.00,,2013-07-10 19:32:00,
2013-07-10 12:42:00,97.0,72.0,29.85,NE,46,1.0,4.0,45,0.00,,,0.00,,2013-07-10 19:42:00,
2013-07-10 12:52:00,96.0,71.0,29.85,SW,226,2.0,8.0,45,0.00,,,0.00,,2013-07-10 19:52:00,
2013-07-10 13:01:00,97.0,71.0,29.85,WSW,238,1.0,5.0,44,0.00,,,0.00,,2013-07-10 20:01:00,
2013-07-10 13:11:00,97.0,71.0,29.85,WNW,283,2.0,10.0,44,0.00,,,0.00,,2013-07-10 20:11:00,
2013-07-10 13:22:00,97.0,71.0,29.84,South,177,1.0,6.0,44,0.00,,,0.00,,2013-07-10 20:22:00,
2013-07-10 13:32:00,98.0,72.0,29.84,SE,131,3.0,7.0,43,0.00,,,0.00,,2013-07-10 20:32:00,
2013-07-10 13:42:00,99.0,71.0,29.84,ESE,121,4.0,9.0,41,0.00,,,0.00,,2013-07-10 20:42:00,
2013-07-10 13:52:00,99.0,72.0,29.84,East,101,2.0,8.0,42,0.00,,,0.00,,2013-07-10 20:52:00,
2013-07-10 14:01:00,97.0,72.0,29.84,SE,143,3.0,8.0,45,0.00,,,0.00,,2013-07-10 21:01:00,
2013-07-10 14:11:00,97.0,73.0,29.83,East,96,2.0,9.0,46,0.00,,,0.00,,2013-07-10 21:11:00,
2013-07-10 14:21:00,98.0,73.0,29.83,East,91,4.0,9.0,45,0.00,,,0.00,,2013-07-10 21:21:00,
2013-07-10 14:32:00,98.0,72.0,29.83,East,84,3.0,7.0,44,0.00,,,0.00,,2013-07-10 21:32:00,
2013-07-10 14:41:00,98.0,73.0,29.83,SSE,166,4.0,8.0,45,0.00,,,0.00,,2013-07-10 21:41:00,
2013-07-10 14:51:00,98.0,72.0,29.82,SE,134,4.0,6.0,43,0.00,,,0.00,,2013-07-10 21:51:00,
2013-07-10 15:01:00,99.0,71.0,29.82,ESE,122,1.0,7.0,41,0.00,,,0.00,,2013-07-10 22:01:00,
2013-07-10 15:33:00,97.0,71.0,29.81,SE,135,2.0,5.0,43,0.00,,,0.00,,2013-07-10 22:33:00,
2013-07-10 15:42:00,97.0,71.0,29.80,ESE,108,1.0,5.0,44,0.00,,,0.00,,2013-07-10 22:42:00,
2013-07-10 16:01:00,96.0,72.0,29.80,ESE,117,3.0,7.0,46,0.00,,,0.00,,2013-07-10 23:01:00,
2013-07-10 16:11:00,95.0,72.0,29.79,NNE,16,4.0,8.0,47,0.00,,,0.00,,2013-07-10 23:11:00,
2013-07-10 16:32:00,95.0,73.0,29.79,East,100,3.0,8.0,49,0.00,,,0.00,,2013-07-10 23:32:00,
2013-07-10 16:42:00,95.0,73.0,29.79,East,100,3.0,8.0,49,0.00,,,0.00,,2013-07-10 23:42:00,
2013-07-10 16:52:00,94.0,71.0,29.78,WNW,283,3.0,8.0,48,0.00,,,0.00,,2013-07-10 23:52:00,
2013-07-10 17:01:00,94.0,71.0,29.78,East,101,2.0,6.0,48,0.00,,,0.00,,2013-07-11 00:01:00,
2013-07-10 17:11:00,94.0,71.0,29.78,East,101,2.0,5.0,48,0.00,,,0.00,,2013-07-11 00:11:00,
2013-07-10 17:32:00,94.0,71.0,29.77,East,86,2.0,3.0,48,0.00,,,0.00,,2013-07-11 00:32:00,
2013-07-10 17:42:00,94.0,71.0,29.77,SSE,160,1.0,4.0,47,0.00,,,0.00,,2013-07-11 00:42:00,
2013-07-10 17:51:00,94.0,71.0,29.77,East,101,1.0,4.0,47,0.00,,,0.00,,2013-07-11 00:51:00,
2013-07-10 18:01:00,94.0,71.0,29.76,ESE,120,1.0,4.0,48,0.00,,,0.00,,2013-07-11 01:01:00,
2013-07-10 18:11:00,94.0,71.0,29.76,ESE,121,0.0,4.0,47,0.00,,,0.00,,2013-07-11 01:11:00,
2013-07-10 18:21:00,94.0,71.0,29.76,East,101,1.0,3.0,47,0.00,,,0.00,,2013-07-11 01:21:00,
2013-07-10 18:32:00,95.0,61.0,29.76,WSW,240,1.0,5.0,33,0.00,,,0.00,,2013-07-11 01:32:00,
2013-07-10 18:43:00,95.0,58.0,29.76,WSW,253,0.0,5.0,29,0.00,,,0.00,,2013-07-11 01:43:00,
2013-07-10 18:52:00,94.0,58.0,29.76,NNE,19,3.0,8.0,30,0.00,,,0.00,,2013-07-11 01:52:00,
2013-07-10 19:01:00,94.0,57.0,29.76,NNW,328,2.0,9.0,29,0.00,,,0.00,,2013-07-11 02:01:00,
2013-07-10 19:32:00,92.0,55.0,29.77,NW,326,4.0,13.0,29,0.00,,,0.00,,2013-07-11 02:32:00,
2013-07-10 19:43:00,92.0,55.0,29.76,North,353,5.0,16.0,29,0.00,,,0.00,,2013-07-11 02:43:00,
2013-07-10 19:53:00,92.0,55.0,29.76,WSW,256,6.0,14.0,29,0.00,,,0.00,,2013-07-11 02:53:00,
2013-07-10 20:01:00,91.0,55.0,29.76,SW,235,5.0,13.0,30,0.00,,,0.00,,2013-07-11 03:01:00,
2013-07-10 20:11:00,91.0,54.0,29.77,West,264,7.0,15.0,29,0.00,,,0.00,,2013-07-11 03:11:00,
2013-07-10 20:21:00,91.0,55.0,29.77,NW,307,7.0,18.0,30,0.00,,,0.00,,2013-07-11 03:21:00,
2013-07-10 20:33:00,90.0,55.0,29.77,WSW,255,3.0,12.0,31,0.00,,,0.00,,2013-07-11 03:33:00,
2013-07-10 20:42:00,90.0,55.0,29.77,NNW,342,6.0,12.0,31,0.00,,,0.00,,2013-07-11 03:42:00,
2013-07-10 20:52:00,89.0,55.0,29.78,West,281,7.0,20.0,32,0.00,,,0.00,,2013-07-11 03:52:00,
2013-07-10 21:01:00,89.0,54.0,29.78,NW,310,6.0,20.0,31,0.00,,,0.00,,2013-07-11 04:01:00,
2013-07-10 21:11:00,89.0,56.0,29.78,WNW,288,6.0,14.0,33,0.00,,,0.00,,2013-07-11 04:11:00,
2013-07-10 21:22:00,89.0,56.0,29.78,West,276,6.0,15.0,33,0.00,,,0.00,,2013-07-11 04:22:00,
2013-07-10 21:32:00,88.0,56.0,29.79,West,267,6.0,16.0,34,0.00,,,0.00,,2013-07-11 04:32:00,
2013-07-10 21:42:00,88.0,56.0,29.79,West,271,5.0,14.0,34,0.00,,,0.00,,2013-07-11 04:42:00,
2013-07-10 22:01:00,88.0,57.0,29.79,SW,233,6.0,12.0,35,0.00,,,0.00,,2013-07-11 05:01:00,
2013-07-10 22:11:00,88.0,56.0,29.79,West,277,6.0,13.0,34,0.00,,,0.00,,2013-07-11 05:11:00,
2013-07-10 22:32:00,87.0,57.0,29.79,WSW,243,2.0,13.0,36,0.00,,,0.00,,2013-07-11 05:32:00,
2013-07-10 22:43:00,87.0,57.0,29.79,North,6,5.0,14.0,36,0.00,,,0.00,,2013-07-11 05:43:00,
2013-07-10 22:52:00,87.0,58.0,29.79,NNW,336,3.0,10.0,37,0.00,,,0.00,,2013-07-11 05:52:00,
2013-07-10 23:01:00,87.0,58.0,29.80,WNW,284,4.0,8.0,38,0.00,,,0.00,,2013-07-11 06:01:00,
2013-07-10 23:11:00,87.0,58.0,29.80,WNW,300,3.0,9.0,38,0.00,,,0.00,,2013-07-11 06:11:00,
2013-07-10 23:32:00,87.0,58.0,29.81,West,264,4.0,12.0,38,0.00,,,0.00,,2013-07-11 06:32:00,
2013-07-10 23:43:00,87.0,58.0,29.81,WNW,282,3.0,12.0,37,0.00,,,0.00,,2013-07-11 06:43:00,